Regional Weather Roundup
Issued by NWS

Home | Current Version | Previous Version | Graphics & Text | Print | Product List | Glossary On
Versions: 1 2 3 4 5 6 7 8 9 10 11 12 13 14 15 16 17 18 19 20 21 22 23 24 25 26 27 28 29 30 31 32 33 34 35 36 37 38 39 40 41 42 43 44 45 46 47 48 49 50
000
ASUS43 KLMK 291102
RWRKY
KENTUCKY REGIONAL WEATHER ROUNDUP
NATIONAL WEATHER SERVICE LOUISVILLE KY
700 AM EDT SAT AUG 29 2015

NOTE "FAIR" INDICATES FEW OR NO CLOUDS BELOW 12,000 FEET
WITH NO SIGNIFICANT WEATHER AND/OR OBSTRUCTIONS TO VISIBILITY.

KYZ001>023-026-027-061>063-070>075-291200-
WESTERN AND SOUTH CENTRAL KENTUCKY

CITY           SKY/WX    TMP DP  RH WIND       PRES   REMARKS
PADUCAH        CLOUDY    72  66  81 S7        30.05R
HENDERSON      CLOUDY    66  63  88 CALM      30.06R
OWENSBORO      CLOUDY    68  66  93 SE5       30.09R
HOPKINSVILLE   PTCLDY    69  65  89 SE3       30.09R
BOWLING GREEN  CLOUDY    65  62  90 CALM      30.12R
GLASGOW        MOCLDY    67  67  99 CALM      30.13S
$$

KYZ024-025-028>034-038-045-046-053-291200-
NORTH CENTRAL KENTUCKY

CITY           SKY/WX    TMP DP  RH WIND       PRES   REMARKS
LOUISVILLE/SDF MOCLDY    69  63  81 E6        30.11R
LOUISVILLE/LOU MOCLDY    69  63  81 SE3       30.13R
FORT KNOX      PTCLDY    66  63  90 S5        30.11R
$$

KYZ035>037-039>044-047>052-055>060-089>105-291200-
NORTHEAST KENTUCKY

CITY           SKY/WX    TMP DP  RH WIND       PRES   REMARKS
LEXINGTON      CLEAR     65  62  90 SE6       30.16R
COVINGTON      NOT AVBL
FRANKFORT      PTCLDY    64  61  90 SE5       30.14R
$$

KYZ054-064>069-076>088-106>120-291200-
SOUTHEAST KENTUCKY

CITY           SKY/WX    TMP DP  RH WIND       PRES   REMARKS
JACKSON        PTCLDY    66  61  84 CALM      30.19R
LONDON         PTCLDY    63  59  87 CALM      30.18S FOG
SOMERSET       NOT AVBL
MIDDLESBORO    CLEAR     60  60  99 CALM      30.21R
MONTICELLO     MOSUNNY   59  59 100 CALM      30.19R
$$




USA.gov is the U.S. government's official web portal to all federal, state and local government web resources and services.